Regional Weather Roundup
Issued by NWS Lake Charles, LA

Home | Current Version | Previous Version | Text Only | Print | Product List | Glossary On
Versions: 1 2 3 4 5 6 7 8 9 10 11 12 13 14 15 16 17 18 19 20 21 22 23 24 25 26 27 28
000
ASUS44 KLCH 060410
RWRLCH
REGIONAL WEATHER ROUNDUP
NATIONAL WEATHER SERVICE LAKE CHARLES LA
1100 PM CDT THU MAY 05 2016

Note: "fair" indicates few or no clouds below 12,000 feet with no
significant weather and/or obstructions to visibility.


ACROSS SOUTHEAST TEXAS

CITY           SKY/WX    TMP DP  RH WIND       PRES   REMARKS
BEAUMONT       CLOUDY    63  56  78 N7        30.00R
BEAUMONT CITY  FAIR      65  56  74 CALM      30.01R
ORANGE         PTCLDY    59  54  82 N3        30.02R
JASPER         CLEAR     58  55  88 CALM      30.04R
$$

ACROSS CENTRAL LOUISIANA

CITY           SKY/WX    TMP DP  RH WIND       PRES   REMARKS
LEESVILLE      CLEAR     58  52  80 N5        30.01R
FULLERTON      FAIR      59  53  80 CALM      29.99R
ALEXANDRIA INT CLEAR     61  53  75 NW3       29.99R
ESLER FIELD    CLEAR     56  52  86 CALM      30.01R
DERIDDER       FAIR      62  54  76 CALM      30.03R
OAKDALE        CLEAR     56  55  97 CALM      30.01R
OPELOUSAS      FAIR     N/A N/A N/A NE3       30.00R
$$

ACROSS SOUTHWEST AND SOUTH CENTRAL LOUISIANA

CITY           SKY/WX    TMP DP  RH WIND       PRES   REMARKS
SULPHUR        CLEAR     67  49  52 N5        30.01R
LAKE CHARLES   CLEAR     68  47  46 N8        30.00R
CHENNAULT INT  CLEAR     65  49  57 N5        30.00R
CAMERON PHI    CLEAR     72  54  53 N9        30.02R
DEQUINCY       FAIR      58  58 100 CALM      30.01R
JENNINGS       FAIR      66  55  68 N3        30.00R
LAFAYETTE      PTCLDY    64  57  78 CALM      30.00R
NEW IBERIA     CLEAR     66  50  56 N6        30.00R
ABBEVILLE      FAIR      64  52  66 N5        30.00R
PATTERSON      NOT AVBL
SALT POINT       N/A     66  54  65 N3        29.97R
$$

SELECTED SITES ACROSS THE REGION

CITY           SKY/WX    TMP DP  RH WIND       PRES   REMARKS
HOUSTON BUSH   MOCLDY    68  51  54 NW3       30.01R
HOUSTON HOBBY  PTCLDY    70  49  47 N6        30.00R
GALVESTON      CLEAR     74  59  59 N9        30.01R
COLLEGE STAT   CLOUDY    70  51  51 CALM      30.03R
CONROE         CLEAR     58  56  93 CALM      30.03R
HUNTSVILLE     CLOUDY    63  54  72 CALM      30.04R
LUFKIN         CLEAR     58  55  90 CALM      30.03R
SHREVEPORT     PTCLDY    61  52  72 CALM      30.00S
MONROE         CLEAR     58  52  80 CALM      30.00R
NATCHEZ MS     CLEAR     55  46  71 CALM      30.00R
BATON ROUGE    CLEAR     61  47  59 CALM      29.99R
N.O. INTL ARPT PTCLDY    71  46  40 N14       29.98R
SLIDELL        PTCLDY    60  52  74 CALM      29.97R
$$

MARINE REPORTS

STATION/POSITION TIME  SKY/WX   TEMP    WIND        PRES    VSBY
                                AIR SEA DIR/SP/G
                 (UTC)          (F)     (DEG/KT/KT) (MB)    (MI)
BUOY 30 S HIGH I 0350            77 77  350/ 12/ 12 1015.3R
WVE H/P(F/S)=  2/ 5

SEA RIM ST PARK  0400            71     360/  3/  4 1016.5R
PORT ARTHUR      0300               75              1015.4R
SABINE PASS N    0300            73 76              1016.5R
TEXAS POINT      NOT AVBL
CALCASIEU PASS   0300            73 75              1014.4R
LK CHARLES BEACH 0300            72 76              1015.9R
MARSH ISLAND     0300            75      80/  9/ 11   N/A
FRESH WATER LOCK 0300            69 77              1015.4R
AMERADA PASS     0300            69 74              1014.2R
$$




USA.gov is the U.S. government's official web portal to all federal, state and local government web resources and services.